Miscellaneous Local Product
Issued by NWS North Platte, NE

Home | Current Version | Previous Version | Text Only | Print | Product List | Glossary On
Versions: 1 2 3 4 5 6 7 8 9 10 11 12 13 14 15 16 17 18 19 20 21 22 23 24 25 26 27 28 29 30 31 32 33 34 35 36 37 38 39 40 41 42 43 44 45 46 47 48 49 50
584
AXUS43 KLBF 200310
MISLBF


WESTERN AND NORTH CENTRAL NEBRASKA HOURLY WEATHER ROUNDUP
NATIONAL WEATHER SERVICE NORTH PLATTE NE
1000 PM CDT THU OCT 19 2017

NOTE: "FAIR" INDICATES FEW OR NO CLOUDS BELOW 12,000 FEET WITH NO
SIGNIFICANT WEATHER AND/OR OBSTRUCTIONS TO VISIBILITY.

NOTE: STATIONS NOT REPORTING VARIABLES SUCH AS SKY/WEATHER OR
PRESSURE ARE PROVIDED BY RAWS AND APRS NETWORKS AND ARE NOT UNDER
NATIONAL WEATHER SERVICE QUALITY CONTROL.

...OBSERVATIONS IN AND NEAR THE EASTERN PANHANDLE OF NEBRASKA...

CITY           SKY/WX    TMP DP  RH WIND       PRES   REMARKS
PINE RIDGE     CLOUDY    71  41  33 S16G26    29.78S
GORDON         FAIR      65  43  43 S14       29.81S
CHADRON        CLOUDY    64  30  27 S8        29.76S
ALLIANCE       CLOUDY    57  40  52 S15       29.83F
SIDNEY         CLOUDY    58  37  45 S12       29.88F
CRESCENT LAKE    N/A     60  45  57 S8          N/A
$$

...OBSERVATIONS IN NORTHERN NEBRASKA AND FAR SOUTHERN SOUTH DAKOTA...

CITY           SKY/WX    TMP DP  RH WIND       PRES   REMARKS
WINNER         FAIR      70  47  43 S17G26    29.78S
VALENTINE      CLEAR     70  47  43 S18G26    29.81F
THEDFORD       CLOUDY    64  47  55 S9        29.87F
AINSWORTH      CLEAR     64  49  59 S14       29.85S
O`NEILL        CLEAR     63  50  64 S7        29.88S
ORD            CLEAR     63  48  58 S7        29.89S
BROKEN BOW     CLOUDY    63  47  55 SE10      29.90S
VALENTINE NWR    N/A     60  45  57 S8          N/A
HALSEY           N/A     61  46  58 SE6         N/A
BUTTE            N/A     65  48  55 S13G20      N/A
CHAMBERS         N/A     59  49  68 S3          N/A
EWING            N/A     65  50  58 S5          N/A
$$

...OBSERVATIONS IN SOUTHWEST NEBRASKA AND FAR NORTHEAST COLORADO...

CITY           SKY/WX    TMP DP  RH WIND       PRES   REMARKS
HOLYOKE        FAIR      61  45  55 S9        29.89S
IMPERIAL       CLOUDY    63  44  50 S12       29.89S
OGALLALA       CLOUDY    62  45  54 CALM      29.88R
NORTH PLATTE   PTCLDY    63  45  51 SE8       29.88S
MCCOOK         CLOUDY    67  43  41 S12G22    29.91R
LEXINGTON      PTCLDY    64  45  50 S10       29.91S
STAPLETON        N/A     61  46  57 CALM        N/A
GOTHENBURG       N/A     68  43  39 SE6         N/A
CALLAWAY         N/A     63  48  57 S12         N/A
$$

...OBSERVATIONS IN CENTRAL LINCOLN COUNTY AREA...

CITY           SKY/WX    TMP DP  RH WIND       PRES   REMARKS
N.P. AIRPORT   PTCLDY    63  45  51 SE8       29.88S
N.P. DOWNTOWN    N/A     66  46  48 CALM        N/A
N.P. SOUTHEAST   N/A     66  45  46 SE5G13      N/A
N.P. HILLCREST   N/A     66  45  47 S12G20      N/A
$$

...SOME OBSERVATIONS FROM AROUND THE REGION...

CITY           SKY/WX    TMP DP  RH WIND       PRES   REMARKS
DENVER         CLOUDY    52  29  41 S13       29.91S
LIMON          CLOUDY    43  35  73 CALM      29.96F
ASPEN          CLOUDY    48  26  42 S8        30.09S
LARAMIE        CLOUDY    49  21  33 SW6       30.01S
CASPER         CLOUDY    48  21  34 W9        29.84S
CHEYENNE       CLOUDY    48  29  47 W8        29.94F
SCOTTSBLUFF    CLOUDY    55  32  41 E9        29.83S
GRAND ISLAND   CLEAR     63  48  58 S15       29.94S
OMAHA          PTCLDY    66  51  58 S12       29.97S
SIOUX FALLS    CLEAR     65  52  62 S13       29.88S
PIERRE         CLEAR     63  44  50 SE10      29.70F
RAPID CITY     CLEAR     56  24  29 SE3       29.71F
BISMARCK       CLOUDY    51  40  65 SE8       29.69F
KANSAS CITY    PTCLDY    62  53  72 S12       30.07R
HILL CITY      CLOUDY    66  47  50 S14G26    29.95S
WICHITA        PTCLDY    64  52  64 S15       30.05R
DODGE CITY     CLEAR     62  43  49 S14       30.01R
OKLAHOMA CITY  MOCLDY    62  51  67 S8        30.08R
DALLAS         MOCLDY    72  54  53 SE12      30.07R
AMARILLO       CLOUDY    65  51  60 S12       30.05S
$$




USA.gov is the U.S. government's official web portal to all federal, state and local government web resources and services.